Weather History for Leuchars, United Kingdom

Change the Weather History Date:

Sunday, December 1, 2013

  Actual Average Record
Temperature  
Mean Temperature 42 °F -  
Max Temperature 52 °F 42 °F 55 °F (2006)
Min Temperature 33 °F 34 °F 28 °F (2010)
Degree Days  
Heating Degree Days 22    
Moisture  
Dew Point 39 °F    
Average Humidity 87    
Maximum Humidity 100    
Minimum Humidity 61    
Precipitation  
Precipitation 0.00 in - - ()
Sea Level Pressure  
Sea Level Pressure 30.45 in    
Wind  
Wind Speed 7 mph ()    
Max Wind Speed 18 mph    
Max Gust Speed -    
Visibility 7.2 miles    
Events Fog    
Averages and records for this station are not official NWS values.
T = Trace of Precipitation, MM = Missing Value Source: Averaged Metar Reports

Daily Weather History Graph

Daily Weather History Graph

Search for Another Location

Airport:

Trip Planner

Search our weather history database for the weather conditions in past years. The results will help you decide how hot, cold, wet, or windy it might be!

Date:

Astronomy

Dec. 01, 2013 Rise Set
Actual Time 8:20 AM GMT 3:39 PM GMT
Civil Twilight 7:34 AM GMT 4:26 PM GMT
Nautical Twilight 6:46 AM GMT 5:14 PM GMT
Astronomical Twilight 6:00 AM GMT 5:59 PM GMT
Moon 6:04 AM GMT (12/1) 2:53 PM GMT (12/1)
Length of Visible Light 8h 51m
Length of Day
7h 19m
Waning Crescent, 3% of the Moon is Illuminated
Dec 1
Waning Crescent
Dec 3
New
Dec 9
First Quarter
Dec 17
Full
Dec 25
Last Quarter

Hourly Weather History & Observations

Time (GMT) Temp. Windchill Dew Point Humidity Pressure Visibility Wind Dir Wind Speed Gust Speed Precip Events Conditions
12:00 AM 44 °F - 40 °F 80% 30.30 in 28 mi West 18.4 mph - -   Scattered Clouds
12:50 AM 42.8 °F 36.6 °F 41.0 °F 93% 30.30 in 6.2 mi WSW 11.5 mph - N/A   Partly Cloudy
1:50 AM 42.8 °F 36.6 °F 39.2 °F 87% 30.30 in 6.2 mi WSW 11.5 mph - N/A   Partly Cloudy
2:50 AM 42.8 °F 38.0 °F 39.2 °F 87% 30.30 in 6.2 mi WSW 8.1 mph - N/A   Mostly Cloudy
3:00 AM 42 °F - 39 °F 86% 30.33 in 28 mi WSW 8.1 mph - -   Mostly Cloudy
3:50 AM 42.8 °F 35.8 °F 41.0 °F 93% 30.33 in 6.2 mi West 13.8 mph - N/A   Mostly Cloudy
4:50 AM 42.8 °F 37.0 °F 41.0 °F 93% 30.33 in 6.2 mi WSW 10.4 mph - N/A   Mostly Cloudy
5:50 AM 42.8 °F 38.0 °F 41.0 °F 93% 30.36 in 6.2 mi WSW 8.1 mph - N/A   Partly Cloudy
6:00 AM 42 °F - 40 °F 91% 30.37 in 28 mi WSW 8.1 mph - -   Scattered Clouds
6:50 AM 42.8 °F 37.0 °F 41.0 °F 93% 30.36 in 6.2 mi West 10.4 mph - N/A   Partly Cloudy
7:50 AM 39.2 °F 33.6 °F 37.4 °F 93% 30.39 in 6.2 mi West 8.1 mph - N/A   Mostly Cloudy
8:50 AM 39.2 °F 35.9 °F 37.4 °F 93% 30.42 in 6.2 mi WNW 4.6 mph - N/A   Mostly Cloudy
9:00 AM 40 °F - 37 °F 83% 30.43 in 25 mi WNW 4.6 mph - -   Scattered Clouds
9:50 AM 44.6 °F 41.4 °F 39.2 °F 81% 30.45 in 6.2 mi West 5.8 mph - N/A   Mostly Cloudy
10:50 AM 46.4 °F 44.3 °F 42.8 °F 87% 30.48 in 6.2 mi WNW 4.6 mph - N/A   Scattered Clouds
11:50 AM 51.8 °F - 41.0 °F 67% 30.48 in 6.2 mi SSW 1.2 mph - N/A   Scattered Clouds
12:00 PM 51 °F - 42 °F 61% 30.50 in 37 mi SSW 1.2 mph - -   Scattered Clouds
12:50 PM 51.8 °F - 41.0 °F 67% 30.48 in 6.2 mi SW 3.5 mph - N/A   Partly Cloudy
1:50 PM 51.8 °F - 42.8 °F 71% 30.48 in 6.2 mi SSW 1.2 mph - N/A   Partly Cloudy
2:50 PM 50.0 °F - 42.8 °F 76% 30.51 in 6.2 mi West 1.2 mph - N/A   Scattered Clouds
3:00 PM 51 °F - 43 °F 65% 30.52 in 37 mi West 1.2 mph - -   Scattered Clouds
3:50 PM 42.8 °F - 39.2 °F 87% 30.51 in 6.2 mi Calm Calm - N/A   Partly Cloudy
4:50 PM 39.2 °F - 37.4 °F 93% 30.51 in 6.2 mi WSW 2.3 mph - N/A Fog Shallow Fog
5:50 PM 37.4 °F 34.9 °F 35.6 °F 93% 30.54 in 6.2 mi West 3.5 mph - N/A   Scattered Clouds
6:00 PM 37 °F - 35 °F 91% 30.54 in 19 mi West 3.5 mph - -   Scattered Clouds
6:50 PM 39.2 °F 34.2 °F 37.4 °F 93% 30.54 in 6.2 mi West 6.9 mph - N/A   Mostly Cloudy
7:50 PM 37.4 °F - 35.6 °F 93% 30.54 in 6.2 mi SSE 1.2 mph - N/A   Mostly Cloudy
8:50 PM 35.6 °F - 35.6 °F 100% 30.57 in 6.2 mi West 1.2 mph - N/A   Mostly Cloudy
9:00 PM 36 °F - 35 °F 95% 30.57 in 19 mi West 1.2 mph - -   Mostly Cloudy
9:50 PM 33.8 °F 30.8 °F 33.8 °F 100% 30.57 in 6.2 mi West 3.5 mph - N/A   Scattered Clouds
10:50 PM 33.8 °F 29.6 °F 32.0 °F 93% 30.57 in 6.2 mi WNW 4.6 mph - N/A   Mostly Cloudy
11:50 PM 35.6 °F 31.7 °F 35.6 °F 100% 30.54 in 6.2 mi WNW 4.6 mph - N/A   Scattered Clouds